Regional Weather Roundup
Issued by NWS Albany, NY

Home | Current Version | Previous Version | Text Only | Print | Product List | Glossary On
Versions: 1 2 3 4 5 6 7 8 9 10 11 12 13 14 15 16 17 18 19 20 21 22 23 24 25 26 27 28 29 30 31 32 33 34 35 36 37 38 39 40 41 42 43 44 45 46 47 48 49 50
711
ASUS41 KALY 172310
RWRALY

NEW YORK STATE HOURLY WEATHER ROUNDUP
NATIONAL WEATHER SERVICE ALBANY NY
700 PM EDT THU AUG 17 2017

NOTE: "FAIR" INDICATES FEW OR NO CLOUDS BELOW 12,000 FEET WITH NO
SIGNIFICANT WEATHER AND/OR NO OBSTRUCTIONS TO VISIBILITY.

NYZ032-033-038>043-046>054-057>066-NYZ062>081-082-084-180000-
EAST


CITY           SKY/WX    TMP DP  RH WIND       PRES   REMARKS
ALBANY         CLOUDY    75  52  44 S5        29.96F
GLENS FALLS    CLOUDY    71  54  54 CALM      29.96S
POUGHKEEPSIE   PTCLDY    80  62  54 S6        29.94F
NEWBURGH       PTCLDY    79  66  65 VRB7      29.98S
MONTGOMERY     MOCLDY    79  66  64 S6        29.95F
WHITE PLAINS   CLEAR     75  60  59 S7        29.98F
ISLIP          PTCLDY    74  63  68 S7        29.99S
NEW YORK CITY  MOCLDY    78  62  57 S10       29.97S
CENTRAL PARK   CLEAR     76  61  59 S5        30.00S
$$

NYZ005>009-017-018-044>046-055-056-180000-
CENTRAL


CITY           SKY/WX    TMP DP  RH WIND       PRES   REMARKS
FULTON         MOSUNNY   74  60  61 CALM      29.89F
SYRACUSE       CLOUDY    74  61  63 E8        29.88F
ROME           CLOUDY    74  58  57 E7        29.93F
ELMIRA         CLOUDY    81  67  62 SW8       29.89F
BINGHAMTON     MOSUNNY   74  65  73 SE6       29.95F
MONTICELLO     CLEAR     74  64  71 S5        30.00F
$$

NYZ026>034-041>043-087-180000-
NORTH


CITY           SKY/WX    TMP DP  RH WIND       PRES   REMARKS
WATERTOWN      CLOUDY    73  65  75 E3        29.90F
FORT DRUM      NOT AVBL
OGDENSBURG     FAIR      72  64  75 CALM      29.92F
MASSENA        PTCLDY    72  63  73 NE3       29.94F
SARANAC LAKE   PTCLDY    66  57  72 CALM      29.98F
PLATTSBURGH    PTCLDY    70  60  70 CALM      29.96S
$$

NYZ001>004-010>016-019>021-085-180000-
WEST


CITY           SKY/WX    TMP DP  RH WIND       PRES   REMARKS
NIAGARA FALLS  LGT RAIN  75  68  78 SE8       29.82S
BUFFALO        LGT RAIN  76  70  82 E5        29.83S
DUNKIRK        LGT RAIN  75  72  90 S8        29.82S FOG
JAMESTOWN      RAIN      72  70  93 S9        29.90R FOG
WELLSVILLE     MOSUNNY   77  65  66 S9        29.95F
ROCHESTER      CLOUDY    78  65  63 SE12      29.85F
PENN YAN       MOSUNNY   77  64  64 CALM      29.90F
$$

             KEY
       WCI = WIND CHILL INDEX
       VSB = VISIBILITY
       HX  = HEAT INDEX
$$




USA.gov is the U.S. government's official web portal to all federal, state and local government web resources and services.